Temperature
20 20 20 20 18 17 18 18 19 18 18 18 18 18 17 17 17 17 16 17 17 17 17 17 17 17 17 17 17 17 17 17 17 17 17 17 16 17 17 16 16 16 16 16 16 16 16 17 17
20 20 20 20 17 18 18 18 18 18 18 18 18 18 17 17 17 17 16 17 17 17 17 17 17 17 17 17 17 17 17 17 16 16 16 16 16 16 16 16 16 16 16 16 16 16 16 16 17
20 20 20 17 17 18 19 18 18 18 18 18 17 17 17 17 17 17 16 17 17 17 17 17 17 17 17 17 17 17 16 16 16 16 16 16 16 16 16 16 16 16 16 16 16 16 16 16 16
20 20 19 17 18 18 18 18 18 18 18 18 17 17 17 17 17 17 17 17 17 17 17 17 17 17 17 16 16 16 16 16 16 16 16 16 16 16 15 15 15 15 16 16 16 16 16 16 16
20 20 17 17 18 18 18 18 18 18 18 18 17 17 16 17 17 17 17 17 17 17 17 17 17 16 16 16 16 16 16 16 16 16 16 16 16 16 15 15 15 15 15 16 16 16 16 16 16
20 18 17 17 18 18 18 18 18 18 18 17 17 17 16 17 17 17 17 17 17 17 17 16 16 16 16 16 16 16 16 16 16 16 16 15 15 15 15 15 15 15 15 16 16 16 16 16 16
19 16 17 18 18 18 18 18 18 17 18 17 17 16 16 17 17 17 17 17 17 17 16 16 16 16 16 16 16 16 16 16 16 15 15 15 15 15 15 15 15 15 15 16 16 16 16 16 16
19 16 17 17 18 18 18 18 18 18 17 18 18 17 16 17 17 17 17 17 17 16 16 16 16 16 16 16 16 16 16 15 15 15 15 15 15 15 15 15 15 15 15 15 16 16 16 16 16
19 16 17 18 18 18 18 18 18 18 18 18 18 18 17 17 17 17 17 17 17 16 16 16 16 16 16 16 16 16 16 16 16 15 15 15 15 15 15 15 15 15 15 15 16 16 16 16 16
19 16 18 18 18 18 18 18 18 18 17 17 17 17 17 17 17 17 17 17 17 17 16 16 16 16 16 16 16 16 16 16 16 15 15 15 15 15 15 15 15 15 15 15 16 16 16 16 16
18 17 18 18 19 19 18 18 18 18 17 17 17 17 17 17 17 17 17 17 17 17 16 16 16 16 16 16 16 16 16 16 16 16 15 15 15 15 15 15 16 15 15 15 15 16 16 16 16
18 18 18 18 19 19 18 18 18 18 18 18 18 17 17 17 17 17 17 17 17 17 17 16 16 16 16 16 16 16 16 16 16 16 15 15 15 15 15 15 15 15 15 15 16 16 16 16 16
17 18 18 18 18 18 18 18 17 17 18 18 18 17 17 17 17 17 17 17 17 17 17 16 16 16 16 16 16 16 16 16 16 15 15 15 15 15 15 15 15 15 15 15 15 16 16 16 16
17 18 18 18 18 18 18 17 17 17 18 18 18 18 18 18 18 17 17 17 17 17 17 16 16 16 16 16 16 16 16 16 16 15 15 15 15 15 15 15 15 15 15 15 15 15 15 15 15
18 17 17 17 18 18 18 17 17 17 18 18 18 18 18 18 18 18 17 17 17 17 17 16 16 16 16 16 16 16 16 16 16 15 15 15 15 15 15 15 15 15 15 15 15 15 15 15 15
17 17 17 17 18 18 18 17 17 17 18 17 17 18 18 18 18 18 18 17 17 17 17 17 16 16 16 16 16 16 16 16 16 15 15 15 15 15 15 15 15 15 15 15 15 15 15 15 15
17 17 17 17 17 17 17 17 17 17 17 17 17 18 18 18 17 18 18 18 17 17 17 17 16 16 16 16 16 16 16 15 15 15 15 15 15 15 15 15 15 15 15 15 15 15 15 15 15
17 17 17 17 17 17 17 16 17 17 17 17 17 18 18 18 18 18 18 17 17 17 17 17 17 16 16 16 16 16 16 15 15 15 15 15 15 15 15 15 15 15 15 15 15 15 15 15 15
17 17 16 17 17 17 17 17 17 17 17 17 17 17 18 18 18 18 18 17 17 17 17 17 17 16 16 16 16 16 15 15 15 15 15 15 15 15 15 15 15 15 15 15 15 15 15 15 15
17 17 16 17 17 17 17 17 17 17 17 17 17 18 18 18 18 18 18 18 17 17 17 17 17 17 16 16 16 16 15 15 15 15 15 15 15 15 15 15 15 15 15 15 15 15 15 15 15
17 16 16 17 17 17 17 17 17 17 17 17 18 18 18 18 18 18 18 18 18 17 17 17 17 17 16 16 16 16 15 15 15 15 15 15 15 15 15 15 15 15 15 15 15 15 15 15 15
17 17 17 17 16 16 17 16 16 16 16 16 17 18 18 18 18 18 18 18 18 17 17 17 17 17 16 16 16 16 16 15 15 15 15 15 15 15 15 15 15 15 15 15 15 15 15 15 15
17 18 17 17 16 16 16 16 16 16 16 16 17 18 18 19 19 18 18 18 18 18 17 17 17 17 16 16 16 16 16 16 15 15 15 15 15 15 14 14 15 15 15 14 15 15 15 15 14
18 17 16 15 15 16 16 16 16 15 16 17 17 18 18 19 19 19 19 18 18 18 17 17 17 17 16 16 16 16 16 16 15 15 15 15 15 14 14 14 14 14 14 14 14 14 14 14 14
17 16 16 16 15 16 16 16 16 17 17 17 18 18 19 19 19 19 18 18 18 18 17 17 17 17 17 16 16 16 16 16 15 15 15 15 15 15 14 14 14 14 14 14 14 14 14 14 14
17 16 16 16 16 16 16 16 17 18 18 19 19 19 19 19 19 19 19 18 18 18 18 17 17 17 17 17 16 16 16 16 16 15 15 15 15 15 14 14 14 14 14 14 14 14 14 14 14
17 16 16 16 16 16 16 16 17 18 17 17 18 18 18 19 19 19 19 19 18 18 18 18 17 17 17 17 17 16 16 16 16 15 15 15 15 14 14 14 14 14 14 14 14 14 14 14 14
18 16 15 16 16 17 17 17 17 18 18 17 16 17 18 19 19 19 19 19 18 18 18 18 17 17 17 17 17 16 16 16 16 16 15 15 15 14 14 14 14 14 14 14 14 14 14 14 14
17 17 15 14 15 16 17 17 18 18 18 16 16 17 18 19 19 19 19 19 19 18 18 18 18 17 17 17 17 16 16 16 16 15 15 15 15 14 14 14 14 14 14 13 14 13 13 13 13
18 17 16 16 16 15 15 17 19 17 17 17 17 18 19 19 19 19 19 19 19 18 18 18 18 17 17 17 17 16 16 16 16 15 15 15 15 14 14 14 14 14 14 13 13 13 13 13 13
Wind_Speed
5 3 3 4 5 5 3 2 1 3 3 3 5 6 6 5 3 4 1 3 5 4 6 8 11 12 13 13 13 13 13 13 13 12 12 12 11 10 10 9 9 9 9 9 8 8 8 7 7
2 2 4 5 5 3 2 2 2 2 4 4 5 5 6 5 4 5 2 4 6 6 7 8 11 12 12 13 13 13 13 12 12 11 11 10 10 10 10 9 9 8 8 8 8 7 7 7 7
1 3 4 4 4 3 2 1 4 5 5 3 4 5 4 4 4 3 3 6 6 6 7 8 11 11 12 12 13 12 12 12 11 11 10 10 9 9 9 9 8 8 8 8 8 7 7 7 6
3 5 5 5 4 1 2 3 4 5 4 4 4 5 4 3 3 5 7 7 7 6 7 8 10 11 11 12 12 12 11 10 10 10 9 9 9 8 8 8 8 8 7 7 7 7 7 7 6
4 4 5 4 3 2 2 3 3 4 3 4 5 6 4 4 7 9 8 7 7 5 6 8 10 11 11 11 11 10 9 9 9 9 8 8 8 7 7 7 7 7 6 7 7 7 7 7 7
4 5 5 3 2 2 2 2 4 6 6 5 6 5 3 3 7 7 7 6 6 5 5 7 9 10 10 10 9 9 9 8 8 8 7 7 7 7 7 7 6 6 6 6 7 7 7 7 7
4 4 4 4 3 2 2 3 4 5 5 4 4 5 3 3 5 6 7 6 5 5 5 6 7 8 8 8 8 8 8 7 7 7 7 7 7 7 7 7 7 7 7 7 7 7 7 7 6
4 5 4 2 4 2 2 3 3 5 5 3 3 6 5 4 6 7 7 6 5 4 4 4 6 7 7 7 7 7 8 8 8 8 8 8 8 9 9 9 8 8 7 7 7 7 7 8 7
3 5 3 3 4 3 3 4 2 4 5 4 3 4 6 10 9 8 6 4 3 3 3 3 4 5 6 6 7 8 9 9 9 9 9 9 8 8 9 9 9 9 8 8 8 8 8 8 8
4 4 2 2 4 5 5 4 3 4 5 5 7 8 10 10 9 8 6 4 3 1 1 2 2 3 4 5 6 8 8 8 9 9 8 8 8 8 8 10 11 11 10 10 10 10 9 9 8
3 4 2 3 5 6 5 4 3 7 4 5 10 12 10 10 8 7 5 4 3 2 1 1 2 3 3 4 5 6 6 7 8 8 8 8 9 9 9 9 10 10 10 10 10 10 9 9 7
4 3 3 4 5 6 5 4 5 4 3 6 9 11 9 10 8 7 6 5 3 2 1 2 3 3 3 4 4 4 5 6 6 7 8 7 6 6 6 7 7 8 8 7 8 7 8 9 9
4 3 5 7 8 7 9 7 5 4 5 9 10 10 10 8 6 5 5 4 4 3 1 1 3 3 3 4 3 4 4 5 6 7 8 7 5 4 4 5 7 7 7 6 6 6 6 7 7
3 6 7 7 8 5 9 5 5 3 6 9 9 8 7 7 6 5 5 4 4 3 2 2 3 4 4 3 3 3 4 5 7 7 7 7 6 5 4 4 5 6 7 6 6 6 5 5 5
5 8 7 5 5 3 7 6 3 3 7 7 6 6 5 5 6 6 6 5 5 4 3 3 4 4 5 4 4 5 5 6 6 7 8 8 7 6 5 4 4 5 7 7 7 7 6 5 6
4 5 4 3 4 3 5 4 1 3 7 7 5 5 5 4 5 5 5 5 5 5 4 3 5 5 5 5 5 6 6 7 6 7 8 8 8 8 7 4 4 6 7 6 4 4 5 5 5
4 3 3 2 3 3 4 4 2 3 6 6 5 5 5 5 4 4 5 5 5 5 5 4 5 6 5 5 6 7 7 7 7 8 8 8 8 9 8 5 5 6 6 5 4 4 4 4 5
2 3 2 1 1 4 4 2 3 4 6 6 5 5 5 6 6 5 5 5 5 5 5 5 5 6 5 4 4 4 5 5 8 8 8 8 8 9 8 6 7 7 5 5 4 5 5 4 4
4 4 3 1 0 4 4 3 4 5 5 6 6 6 6 6 4 4 4 5 5 4 5 5 5 4 4 3 3 3 2 2 3 6 8 8 9 9 8 6 6 6 5 4 4 3 5 5 3
5 5 2 2 2 3 3 2 3 5 6 7 8 8 8 6 4 5 5 5 5 5 5 4 5 5 3 3 2 2 2 2 2 3 7 9 8 8 7 6 4 4 4 6 5 4 3 4 4
2 4 3 3 2 4 3 1 3 4 4 5 6 7 7 9 9 7 6 6 5 5 6 5 4 4 3 4 4 3 3 3 3 3 3 6 7 8 8 7 6 5 4 4 4 4 4 3 4
1 2 4 4 3 1 1 2 5 4 5 7 8 8 8 8 8 8 7 7 7 6 5 5 5 4 4 5 5 4 3 1 0 1 1 3 6 7 7 8 7 6 4 4 4 4 3 3 3
3 3 5 4 3 2 1 1 6 3 7 10 10 10 10 9 9 9 9 8 7 6 5 5 4 4 4 4 5 5 3 2 1 1 2 3 4 6 6 7 7 6 5 4 5 5 5 3 3
6 6 6 5 3 1 2 3 6 5 10 9 11 11 11 10 9 9 7 6 5 5 5 5 5 4 3 4 4 5 5 4 3 1 1 2 2 3 5 6 6 5 5 4 5 5 6 5 5
5 5 3 3 2 3 2 3 8 8 8 11 13 14 12 11 10 9 9 8 7 7 6 6 6 4 4 4 4 5 5 5 5 3 2 1 1 1 2 3 3 4 4 5 5 5 5 5 5
3 5 4 2 2 3 1 5 8 6 5 7 9 10 11 11 11 11 11 10 9 8 8 7 7 5 5 5 5 4 5 4 3 3 3 3 2 1 0 2 3 4 5 5 5 4 4 4 5
5 3 4 4 1 2 4 6 8 2 1 3 6 8 10 11 12 11 10 9 9 9 9 9 8 6 5 5 5 4 4 4 4 3 3 2 2 1 2 3 3 4 5 5 5 4 3 4 4
4 6 4 3 2 2 5 4 4 5 3 2 5 8 9 10 9 9 9 9 9 8 7 7 7 7 6 5 5 4 4 4 4 4 4 3 2 2 3 3 3 3 4 4 5 3 3 4 3
4 4 4 3 3 3 2 6 5 6 4 6 8 8 9 10 10 10 9 8 7 6 6 7 6 6 5 6 5 5 4 4 4 4 4 3 3 3 3 3 3 3 3 3 4 3 3 4 3
4 5 6 3 2 3 2 6 6 4 4 6 6 7 7 8 9 8 8 8 7 7 7 7 6 6 6 5 5 5 4 5 4 4 4 3 4 4 4 4 4 3 3 3 4 3 3 3 2
Wind_Direction
341 38 76 59 57 56 51 13 57 63 63 59 73 84 91 69 77 116 108 112 113 102 99 99 99 96 93 93 92 90 88 87 86 84 82 80 79 78 77 74 71 68 66 63 60 59 58 57 56
351 62 57 60 79 76 30 23 77 86 126 118 70 69 75 73 73 96 97 112 106 103 97 99 99 96 93 91 90 88 85 83 82 81 80 79 76 75 74 72 69 65 61 57 53 53 51 48 48
53 56 76 69 81 121 126 94 110 95 99 94 78 55 66 88 98 109 133 119 99 91 91 99 97 95 93 91 90 89 87 82 78 75 73 71 71 71 70 67 64 62 57 53 48 45 43 41 44
72 46 56 69 71 56 142 142 123 113 74 60 96 74 54 51 116 126 122 113 101 87 89 100 98 95 94 91 88 87 84 81 76 73 71 69 67 66 64 61 57 55 51 47 42 39 39 39 41
59 72 63 61 52 32 81 124 110 97 76 69 89 88 50 30 98 113 113 110 107 92 90 100 99 96 93 90 88 85 82 77 73 69 65 62 58 56 55 52 49 46 44 40 37 36 37 37 37
53 63 80 91 61 51 57 69 96 88 91 84 85 92 64 88 108 116 113 108 102 98 82 85 96 95 91 88 84 80 75 71 66 61 56 50 44 42 42 41 39 35 33 34 36 36 34 33 34
93 85 104 120 105 80 96 76 92 101 93 80 97 94 90 100 115 114 106 99 90 84 74 62 68 74 80 82 78 74 68 63 57 51 46 40 33 30 31 31 30 29 31 35 37 36 35 33 36
110 98 87 107 120 111 94 77 87 96 97 97 96 120 147 155 123 105 93 88 82 74 69 62 59 58 54 55 65 66 60 54 50 45 41 36 29 24 22 21 20 23 29 37 38 39 40 40 42
84 79 114 163 150 138 108 96 75 71 91 64 67 108 133 129 119 108 95 80 79 80 60 67 55 48 46 44 51 49 45 43 43 37 35 37 31 23 17 18 21 25 34 42 44 47 46 46 46
74 110 167 170 152 127 108 103 108 96 82 77 84 92 113 123 128 130 134 139 143 140 107 86 69 51 43 46 47 42 41 42 42 35 33 37 35 28 26 23 27 31 39 45 44 50 50 50 51
81 129 131 87 111 113 106 87 80 111 106 140 136 134 132 131 133 141 151 163 169 166 156 126 97 70 63 56 51 45 44 45 42 38 38 44 42 35 31 30 27 29 36 39 39 43 44 49 55
80 67 99 106 101 99 102 97 76 83 136 138 136 137 137 141 150 162 166 167 148 141 158 124 108 92 77 74 66 54 49 48 43 40 45 50 41 34 28 30 28 32 34 38 38 40 45 52 56
67 78 74 86 85 93 92 87 91 73 100 114 121 130 143 149 154 161 158 146 140 145 143 101 110 108 96 82 72 63 51 50 50 48 46 54 54 37 32 31 33 35 40 44 41 40 45 48 51
90 91 87 80 79 77 95 81 83 85 112 121 129 139 148 150 151 142 140 140 148 153 143 100 104 115 109 92 77 64 58 57 58 53 48 53 58 55 48 38 34 33 38 48 53 50 51 49 53
89 90 71 53 70 84 92 63 76 117 121 127 139 147 146 148 148 153 160 155 154 147 136 125 120 106 104 93 78 70 60 62 59 53 53 56 56 56 57 47 35 27 40 55 58 51 52 54 53
49 63 73 39 69 81 101 124 110 116 126 135 149 157 152 153 158 161 158 152 149 142 135 132 119 104 96 88 78 71 63 61 54 55 57 56 57 62 62 52 32 30 47 53 58 47 57 52 54
34 81 99 66 58 84 100 150 178 148 139 149 161 166 164 162 170 173 168 157 150 145 137 119 111 109 100 87 77 69 63 55 49 51 53 55 58 61 64 54 37 43 53 45 56 53 62 63 61
145 112 91 81 25 105 110 161 170 169 160 169 169 167 172 179 191 178 165 149 141 136 129 125 113 108 102 87 72 59 50 43 44 44 46 54 57 59 62 55 40 49 55 44 51 63 57 59 57
131 117 99 36 124 117 136 164 195 180 171 179 179 180 189 198 194 167 158 146 137 133 129 134 130 126 117 98 88 76 51 26 29 36 44 50 56 58 61 56 45 45 56 53 56 72 65 47 31
109 112 103 45 37 110 132 183 207 200 197 195 192 194 195 189 175 172 168 163 160 157 149 146 150 150 144 119 115 113 105 64 38 30 40 40 50 55 60 58 53 47 57 52 46 58 79 49 32
107 151 156 144 64 54 81 331 219 221 201 203 205 200 195 190 186 184 180 182 172 172 172 167 168 162 149 127 106 82 59 41 29 19 15 20 46 57 61 61 63 55 60 61 50 54 83 82 41
121 171 142 127 104 34 93 257 257 212 208 212 212 204 200 196 187 184 184 184 187 189 175 165 164 161 153 144 139 134 126 116 359 346 10 22 44 55 61 64 64 60 57 60 54 58 69 93 73
145 113 108 103 98 57 32 188 277 196 217 222 214 209 204 195 187 189 190 190 188 179 169 164 154 155 157 154 151 136 127 133 103 55 52 31 29 44 55 63 65 61 57 57 57 59 61 70 86
121 83 63 53 63 349 219 187 272 218 215 215 209 206 203 194 190 191 188 176 176 168 162 160 156 162 163 158 154 153 152 152 135 109 78 32 18 23 42 61 64 65 63 61 61 65 67 68 75
92 93 54 12 8 266 221 212 254 241 218 208 204 203 198 191 186 185 181 180 181 177 174 171 167 177 178 169 171 170 166 167 171 172 159 140 60 20 4 59 69 70 75 76 73 68 64 65 73
144 131 150 185 238 288 281 246 260 262 239 215 201 194 187 188 189 190 190 187 186 183 180 178 180 187 185 181 183 177 170 170 180 180 169 168 180 196 127 92 85 81 84 86 80 70 69 69 71
137 170 170 137 170 290 283 283 300 315 341 189 179 177 186 189 190 192 189 188 187 186 190 188 186 188 190 187 178 177 175 176 183 178 167 171 184 172 127 110 101 91 89 92 91 74 67 73 68
141 144 107 113 145 297 306 293 275 291 278 191 182 187 191 186 185 187 185 188 190 189 190 188 187 189 187 182 182 183 185 184 178 165 166 172 178 153 137 121 113 106 98 99 95 83 78 82 69
123 115 117 120 157 158 303 288 243 249 237 204 200 193 186 182 184 186 185 185 182 178 180 187 188 183 182 184 184 178 184 178 169 171 178 179 176 161 154 147 134 128 120 114 105 98 92 90 74
172 171 153 152 211 177 195 273 288 270 240 198 196 190 184 182 182 180 177 169 171 180 187 192 189 188 190 183 179 184 178 169 171 180 186 182 175 169 160 152 143 142 139 133 127 128 111 112 107
Height
1500 1500 1500 1502 1505 1516 1520 1518 1514 1515 1516 1517 1517 1518 1520 1524 1527 1534 1531 1530 1531 1532 1533 1533 1534 1534 1535 1535 1535 1535 1536 1536 1536 1536 1536 1536 1536 1536 1536 1536 1536 1536 1536 1536 1536 1535 1535 1535 1536
1500 1500 1502 1502 1512 1525 1523 1517 1516 1516 1516 1517 1519 1520 1522 1525 1527 1529 1530 1531 1532 1533 1534 1535 1535 1536 1536 1536 1536 1536 1537 1537 1537 1537 1537 1537 1537 1537 1537 1537 1536 1536 1536 1536 1536 1536 1536 1536 1536
1500 1501 1502 1506 1516 1524 1522 1517 1516 1516 1517 1518 1520 1522 1524 1527 1528 1530 1531 1532 1534 1535 1536 1536 1537 1537 1537 1538 1538 1538 1538 1539 1539 1539 1539 1538 1538 1538 1538 1538 1537 1537 1537 1537 1537 1537 1537 1537 1537
1501 1502 1504 1512 1519 1518 1517 1517 1516 1517 1518 1519 1521 1524 1527 1529 1530 1532 1533 1534 1535 1536 1537 1538 1538 1539 1539 1539 1540 1540 1540 1540 1540 1540 1540 1540 1539 1539 1539 1539 1539 1538 1538 1538 1538 1538 1537 1537 1538
1501 1502 1510 1519 1519 1517 1516 1516 1517 1518 1519 1521 1522 1526 1530 1531 1532 1533 1535 1536 1537 1538 1539 1540 1540 1541 1541 1541 1541 1542 1542 1542 1542 1542 1541 1541 1541 1541 1540 1540 1540 1540 1539 1539 1539 1538 1538 1538 1538
1502 1505 1519 1524 1521 1518 1518 1518 1518 1519 1521 1523 1525 1528 1532 1534 1534 1536 1537 1539 1540 1541 1541 1542 1542 1543 1543 1543 1544 1544 1544 1544 1544 1543 1543 1543 1542 1542 1541 1541 1541 1541 1540 1540 1540 1539 1539 1539 1539
1505 1510 1519 1521 1522 1520 1519 1519 1520 1521 1523 1525 1526 1529 1533 1535 1537 1538 1540 1541 1542 1543 1543 1544 1545 1545 1545 1546 1546 1546 1546 1546 1545 1545 1545 1544 1544 1543 1543 1542 1542 1542 1541 1541 1541 1540 1540 1540 1540
1505 1511 1519 1522 1522 1522 1520 1521 1522 1523 1525 1527 1528 1530 1534 1536 1538 1540 1542 1543 1544 1545 1546 1546 1547 1547 1547 1548 1548 1548 1548 1547 1547 1547 1546 1546 1545 1545 1544 1544 1543 1543 1542 1542 1542 1541 1541 1541 1541
1506 1516 1523 1521 1521 1521 1520 1522 1524 1525 1526 1528 1529 1531 1535 1537 1540 1542 1543 1545 1546 1547 1548 1548 1549 1549 1550 1550 1550 1550 1550 1549 1549 1548 1548 1547 1547 1546 1546 1545 1544 1544 1544 1543 1543 1543 1543 1543 1542
1508 1518 1519 1517 1517 1519 1521 1523 1525 1526 1528 1530 1531 1534 1536 1539 1541 1543 1545 1546 1547 1548 1550 1550 1551 1551 1552 1552 1552 1551 1551 1551 1551 1550 1550 1549 1548 1548 1547 1546 1546 1545 1545 1545 1544 1544 1544 1544 1544
1510 1515 1515 1516 1517 1519 1521 1524 1525 1527 1530 1531 1532 1535 1538 1540 1543 1545 1547 1548 1549 1550 1551 1552 1553 1553 1553 1553 1553 1553 1553 1552 1552 1551 1551 1550 1550 1549 1548 1548 1547 1546 1546 1546 1546 1546 1546 1546 1545
1512 1514 1515 1517 1518 1520 1523 1525 1527 1528 1531 1532 1534 1537 1539 1542 1544 1546 1548 1550 1551 1552 1553 1553 1554 1554 1555 1555 1555 1555 1554 1554 1553 1553 1552 1552 1551 1550 1550 1549 1548 1548 1547 1547 1547 1547 1547 1547 1547
1514 1516 1518 1519 1520 1522 1524 1527 1529 1531 1533 1534 1537 1539 1541 1544 1546 1548 1550 1551 1552 1553 1554 1555 1555 1556 1556 1556 1556 1556 1556 1555 1555 1554 1554 1553 1552 1552 1551 1550 1549 1549 1549 1548 1548 1548 1548 1548 1548
1517 1518 1520 1522 1523 1525 1527 1530 1531 1534 1535 1537 1538 1541 1543 1545 1547 1549 1551 1552 1553 1554 1555 1556 1556 1557 1557 1557 1557 1557 1557 1556 1556 1555 1555 1554 1553 1553 1552 1551 1550 1550 1550 1549 1549 1549 1549 1550 1550
1518 1521 1524 1525 1526 1529 1530 1534 1535 1536 1537 1539 1540 1543 1545 1547 1549 1550 1552 1553 1554 1555 1556 1557 1558 1558 1559 1559 1559 1558 1558 1558 1557 1557 1556 1555 1554 1554 1553 1552 1551 1551 1550 1550 1550 1550 1551 1551 1551
1521 1526 1531 1529 1528 1531 1535 1541 1537 1537 1538 1540 1542 1544 1546 1548 1550 1552 1553 1554 1556 1557 1558 1558 1559 1559 1560 1560 1560 1559 1559 1559 1558 1558 1557 1556 1555 1554 1554 1553 1552 1552 1551 1551 1551 1551 1552 1552 1552
1528 1534 1535 1532 1530 1531 1535 1540 1538 1538 1539 1541 1543 1545 1547 1549 1551 1552 1554 1555 1556 1557 1558 1559 1560 1560 1561 1561 1561 1561 1560 1560 1560 1559 1558 1557 1556 1555 1555 1554 1553 1552 1552 1552 1552 1552 1553 1553 1553
1535 1535 1536 1536 1533 1533 1537 1539 1538 1539 1540 1541 1543 1545 1547 1549 1550 1552 1554 1556 1557 1558 1559 1560 1561 1561 1562 1562 1562 1562 1562 1561 1561 1560 1559 1559 1557 1556 1556 1555 1554 1553 1553 1553 1553 1554 1554 1554 1555
1529 1533 1537 1535 1532 1534 1537 1539 1538 1538 1540 1541 1543 1544 1546 1548 1551 1553 1554 1556 1558 1559 1560 1561 1562 1562 1563 1563 1563 1563 1562 1562 1562 1561 1560 1560 1559 1558 1557 1556 1555 1555 1554 1554 1554 1555 1555 1555 1556
1529 1535 1537 1536 1533 1534 1538 1539 1538 1538 1539 1540 1541 1543 1545 1548 1550 1552 1554 1556 1558 1559 1560 1561 1562 1563 1563 1564 1564 1564 1563 1563 1563 1562 1562 1561 1560 1559 1558 1557 1556 1556 1555 1555 1555 1555 1556 1556 1557
1532 1535 1537 1538 1536 1535 1539 1543 1540 1537 1538 1539 1541 1542 1544 1546 1548 1551 1553 1555 1557 1559 1560 1562 1563 1563 1564 1564 1564 1564 1564 1564 1563 1563 1562 1562 1561 1560 1559 1559 1558 1557 1557 1556 1556 1556 1557 1557 1558
1536 1531 1533 1536 1542 1547 1544 1553 1541 1537 1537 1537 1538 1540 1542 1545 1547 1550 1552 1554 1556 1559 1561 1562 1563 1564 1564 1564 1565 1565 1565 1564 1564 1564 1563 1563 1562 1561 1561 1560 1559 1559 1558 1557 1557 1557 1557 1558 1558
1532 1530 1533 1537 1543 1548 1547 1552 1545 1537 1537 1534 1534 1536 1539 1542 1545 1548 1550 1553 1556 1558 1560 1562 1563 1563 1564 1565 1565 1565 1565 1565 1565 1564 1564 1563 1563 1562 1562 1561 1561 1560 1559 1559 1558 1558 1558 1558 1559
1530 1534 1538 1542 1547 1555 1548 1552 1547 1538 1531 1528 1530 1532 1535 1539 1543 1546 1549 1552 1554 1557 1559 1560 1562 1563 1564 1564 1565 1565 1565 1565 1565 1564 1564 1564 1564 1563 1563 1562 1562 1561 1561 1560 1560 1559 1559 1559 1559
1532 1543 1555 1556 1560 1557 1546 1548 1541 1524 1521 1521 1523 1527 1531 1536 1539 1543 1546 1549 1552 1554 1557 1559 1560 1562 1563 1564 1564 1564 1565 1565 1565 1565 1564 1564 1564 1564 1563 1563 1563 1562 1562 1561 1561 1561 1561 1561 1560
1534 1540 1554 1561 1561 1556 1547 1548 1530 1517 1516 1516 1519 1523 1528 1532 1536 1539 1543 1546 1549 1552 1555 1557 1559 1560 1562 1563 1563 1564 1564 1564 1564 1564 1564 1564 1564 1564 1564 1564 1563 1563 1563 1563 1562 1562 1562 1562 1562
1536 1540 1540 1550 1552 1556 1550 1540 1524 1514 1514 1514 1517 1520 1524 1528 1532 1536 1540 1544 1547 1550 1552 1555 1557 1559 1560 1561 1562 1563 1563 1564 1564 1564 1564 1564 1564 1564 1564 1564 1564 1564 1564 1563 1563 1563 1563 1563 1563
1529 1535 1544 1550 1557 1559 1550 1542 1535 1519 1516 1516 1517 1518 1521 1525 1529 1533 1537 1541 1544 1547 1550 1553 1555 1557 1559 1560 1561 1561 1562 1563 1563 1563 1563 1563 1564 1564 1564 1564 1564 1564 1564 1564 1564 1564 1564 1564 1564
1533 1536 1541 1549 1551 1557 1556 1545 1519 1516 1514 1514 1515 1516 1519 1522 1526 1530 1534 1538 1542 1545 1548 1551 1553 1555 1556 1558 1559 1560 1561 1561 1562 1562 1562 1562 1563 1563 1563 1564 1564 1564 1564 1565 1564 1565 1565 1565 1565
1526 1530 1538 1547 1549 1551 1555 1545 1513 1512 1511 1512 1513 1515 1518 1521 1525 1529 1533 1536 1540 1543 1546 1548 1550 1553 1554 1556 1557 1558 1559 1559 1560 1560 1561 1561 1561 1562 1563 1563 1564 1564 1564 1565 1565 1565 1565 1565 1565